When you browse on this site, cookies collect data to enhance your experience and personalize the content and advertising you see.
Visit our Privacy Policy to learn more. By continuing to use the site, you agree to this use of cookies and data.
  • în România
  • Lista ţărilor
  • Pe 7 zile
  • Temperatura apei
  • Hartă satelitară
  • Meteo pe hartă
  • Widget-uri
  • user-avatar
    Intrare

    Meteo pe oră la Guntur

    Astăzi, 24 Aprilie, Miercuri

    Timp Temperatura Precipitaţii Vânt Presiune Umiditate
    00:00 +32°C° 0 mm 2 m/s 754 mmHg 71%
    01:00 +31°C° 0 mm 2 m/s 754 mmHg 74%
    02:00 +31°C° 0 mm 2 m/s 754 mmHg 76%
    03:00 +31°C° 0 mm 2 m/s 754 mmHg 79%
    04:00 +30°C° 0 mm 2 m/s 754 mmHg 81%
    05:00 +30°C° 0 mm 2 m/s 754 mmHg 82%
    06:00 +32°C° 0 mm 2 m/s 755 mmHg 74%
    07:00 +34°C° 0 mm 3 m/s 755 mmHg 65%
    08:00 +36°C° 0 mm 3 m/s 755 mmHg 56%
    09:00 +38°C° 0 mm 4 m/s 755 mmHg 47%
    10:00 +41°C° 0 mm 4 m/s 755 mmHg 38%
    11:00 +42°C° 0 mm 4 m/s 755 mmHg 33%
    12:00 +43°C° 0 mm 4 m/s 754 mmHg 30%
    13:00 +43°C° 0 mm 4 m/s 753 mmHg 27%
    14:00 +44°C° 0 mm 4 m/s 753 mmHg 24%
    15:00 +43°C° 0 mm 5 m/s 753 mmHg 26%
    16:00 +42°C° 0 mm 5 m/s 752 mmHg 29%
    17:00 +40°C° 0 mm 6 m/s 752 mmHg 31%
    18:00 +39°C° 0 mm 6 m/s 753 mmHg 39%
    19:00 +36°C° 0 mm 5 m/s 753 mmHg 47%
    20:00 +34°C° 0 mm 5 m/s 754 mmHg 54%
    21:00 +33°C° 0 mm 4 m/s 754 mmHg 58%
    22:00 +33°C° 0 mm 4 m/s 754 mmHg 61%
    23:00 +33°C° 0 mm 4 m/s 754 mmHg 64%

    Mâine, 25 Aprilie, Joi

    Timp Temperatura Precipitaţii Vânt Presiune Umiditate
    00:00 +31°C° 0 mm 3 m/s 754 mmHg 66%
    01:00 +31°C° 0 mm 3 m/s 754 mmHg 67%
    02:00 +31°C° 0 mm 2 m/s 753 mmHg 69%
    03:00 +30°C° 0 mm 2 m/s 753 mmHg 71%
    04:00 +30°C° 0 mm 2 m/s 753 mmHg 74%
    05:00 +30°C° 0 mm 2 m/s 753 mmHg 76%
    06:00 +31°C° 0 mm 3 m/s 754 mmHg 67%
    07:00 +34°C° 0 mm 3 m/s 754 mmHg 58%
    08:00 +36°C° 0 mm 4 m/s 755 mmHg 50%
    09:00 +38°C° 0 mm 4 m/s 754 mmHg 42%
    10:00 +41°C° 0 mm 4 m/s 754 mmHg 34%
    11:00 +43°C° 0 mm 4 m/s 754 mmHg 26%
    12:00 +43°C° 0 mm 5 m/s 753 mmHg 27%
    13:00 +45°C° 0 mm 5 m/s 752 mmHg 27%
    14:00 +45°C° 0 mm 5 m/s 752 mmHg 27%
    15:00 +42°C° 0 mm 6 m/s 751 mmHg 30%
    16:00 +41°C° 0 mm 6 m/s 751 mmHg 33%
    17:00 +39°C° 0 mm 6 m/s 751 mmHg 36%
    18:00 +37°C° 0 mm 5 m/s 752 mmHg 43%
    19:00 +35°C° 0 mm 5 m/s 752 mmHg 50%
    20:00 +34°C° 0 mm 4 m/s 753 mmHg 56%
    21:00 +34°C° 0 mm 5 m/s 753 mmHg 59%
    22:00 +33°C° 0 mm 5 m/s 753 mmHg 62%
    23:00 +33°C° 0 mm 5 m/s 753 mmHg 65%

    Poimâine, 26 Aprilie, Vineri

    Timp Temperatura Precipitaţii Vânt Presiune Umiditate
    00:00 +32°C° 0 mm 4 m/s 753 mmHg 67%
    01:00 +32°C° 0 mm 4 m/s 752 mmHg 69%
    02:00 +31°C° 0 mm 3 m/s 752 mmHg 71%
    03:00 +30°C° 0 mm 2 m/s 752 mmHg 73%
    04:00 +30°C° 0 mm 1 m/s 752 mmHg 75%
    05:00 +30°C° 0 mm 1 m/s 752 mmHg 77%
    06:00 +31°C° 0 mm 2 m/s 752 mmHg 70%
    07:00 +34°C° 0 mm 3 m/s 753 mmHg 63%
    08:00 +35°C° 0 mm 3 m/s 753 mmHg 56%
    09:00 +37°C° 0 mm 3 m/s 753 mmHg 49%
    10:00 +40°C° 0 mm 4 m/s 753 mmHg 41%
    11:00 +42°C° 0 mm 4 m/s 753 mmHg 33%
    12:00 +43°C° 0 mm 4 m/s 752 mmHg 30%
    13:00 +44°C° 0 mm 4 m/s 751 mmHg 27%
    14:00 +45°C° 0 mm 4 m/s 751 mmHg 24%
    15:00 +43°C° 0 mm 5 m/s 750 mmHg 27%
    16:00 +42°C° 0 mm 5 m/s 750 mmHg 29%
    17:00 +41°C° 0 mm 6 m/s 750 mmHg 32%
    18:00 +39°C° 0 mm 6 m/s 751 mmHg 40%
    19:00 +36°C° 0 mm 5 m/s 752 mmHg 47%
    20:00 +35°C° 0 mm 5 m/s 753 mmHg 55%
    21:00 +34°C° 0 mm 4 m/s 753 mmHg 59%
    22:00 +34°C° 0 mm 4 m/s 753 mmHg 62%
    23:00 +33°C° 0 mm 4 m/s 753 mmHg 66%

    27 Aprilie, Sâmbătă

    Timp Temperatura Precipitaţii Vânt Presiune Umiditate
    00:00 +33°C° 0 mm 4 m/s 752 mmHg 69%
    01:00 +32°C° 0 mm 4 m/s 752 mmHg 72%
    02:00 +32°C° 0 mm 4 m/s 751 mmHg 75%
    03:00 +31°C° 0 mm 3 m/s 751 mmHg 76%
    04:00 +31°C° 0 mm 3 m/s 751 mmHg 76%
    05:00 +30°C° 0 mm 2 m/s 752 mmHg 77%
    06:00 +33°C° 0 mm 3 m/s 752 mmHg 71%
    07:00 +34°C° 0 mm 3 m/s 753 mmHg 65%
    08:00 +35°C° 0 mm 4 m/s 753 mmHg 59%
    09:00 +37°C° 0 mm 4 m/s 753 mmHg 50%
    10:00 +40°C° 0 mm 4 m/s 753 mmHg 41%
    11:00 +42°C° 0 mm 4 m/s 753 mmHg 32%
    12:00 +43°C° 0 mm 4 m/s 752 mmHg 31%
    13:00 +44°C° 0 mm 4 m/s 751 mmHg 30%
    14:00 +44°C° 0 mm 4 m/s 750 mmHg 29%
    15:00 +43°C° 0 mm 5 m/s 750 mmHg 34%
    16:00 +41°C° 0 mm 6 m/s 750 mmHg 39%
    17:00 +39°C° 0 mm 7 m/s 750 mmHg 44%
    18:00 +38°C° 0 mm 6 m/s 751 mmHg 51%
    19:00 +35°C° 0 mm 6 m/s 752 mmHg 57%
    20:00 +34°C° 0 mm 6 m/s 753 mmHg 64%
    21:00 +33°C° 0 mm 6 m/s 753 mmHg 66%
    22:00 +33°C° 0 mm 6 m/s 753 mmHg 67%
    23:00 +33°C° 0 mm 5 m/s 753 mmHg 69%

    28 Aprilie, Duminică

    Timp Temperatura Precipitaţii Vânt Presiune Umiditate
    00:00 +33°C° 0 mm 5 m/s 752 mmHg 70%
    01:00 +33°C° 0 mm 4 m/s 751 mmHg 70%
    02:00 +33°C° 0 mm 4 m/s 751 mmHg 71%
    03:00 +32°C° 0 mm 4 m/s 751 mmHg 73%
    04:00 +32°C° 0 mm 4 m/s 751 mmHg 76%
    05:00 +31°C° 0 mm 3 m/s 751 mmHg 78%
    06:00 +33°C° 0 mm 4 m/s 752 mmHg 71%
    07:00 +34°C° 0 mm 4 m/s 753 mmHg 65%
    08:00 +36°C° 0 mm 4 m/s 753 mmHg 58%
    09:00 +38°C° 0 mm 4 m/s 753 mmHg 50%
    10:00 +41°C° 0 mm 4 m/s 753 mmHg 42%
    11:00 +42°C° 0 mm 5 m/s 752 mmHg 34%
    12:00 +43°C° 0 mm 5 m/s 752 mmHg 33%
    13:00 +44°C° 0 mm 6 m/s 751 mmHg 33%
    14:00 +44°C° 0 mm 6 m/s 750 mmHg 32%
    15:00 +42°C° 0 mm 6 m/s 750 mmHg 37%
    16:00 +40°C° 0 mm 6 m/s 750 mmHg 42%
    17:00 +39°C° 0 mm 6 m/s 750 mmHg 47%
    18:00 +38°C° 0 mm 6 m/s 751 mmHg 52%
    19:00 +36°C° 0 mm 6 m/s 752 mmHg 57%
    20:00 +35°C° 0 mm 5 m/s 753 mmHg 62%
    21:00 +34°C° 0 mm 5 m/s 753 mmHg 65%
    22:00 +34°C° 0 mm 5 m/s 753 mmHg 68%
    23:00 +33°C° 0 mm 5 m/s 753 mmHg 70%

    29 Aprilie, Luni

    Timp Temperatura Precipitaţii Vânt Presiune Umiditate
    00:00 +33°C° 0 mm 5 m/s 752 mmHg 72%
    01:00 +33°C° 0 mm 4 m/s 752 mmHg 73%
    02:00 +32°C° 0 mm 4 m/s 751 mmHg 75%
    03:00 +32°C° 0 mm 4 m/s 751 mmHg 76%
    04:00 +31°C° 0 mm 3 m/s 752 mmHg 76%
    05:00 +31°C° 0 mm 3 m/s 752 mmHg 77%
    06:00 +33°C° 0 mm 4 m/s 752 mmHg 70%
    07:00 +35°C° 0 mm 4 m/s 753 mmHg 63%
    08:00 +36°C° 0 mm 4 m/s 754 mmHg 56%
    09:00 +39°C° 0 mm 5 m/s 753 mmHg 49%
    10:00 +41°C° 0 mm 5 m/s 753 mmHg 43%
    11:00 +42°C° 0 mm 6 m/s 753 mmHg 36%
    12:00 +44°C° 0 mm 6 m/s 752 mmHg 36%
    13:00 +44°C° 0 mm 6 m/s 751 mmHg 35%
    14:00 +44°C° 0 mm 7 m/s 750 mmHg 34%
    15:00 +43°C° 0 mm 7 m/s 750 mmHg 39%
    16:00 +40°C° 0 mm 7 m/s 751 mmHg 44%
    17:00 +39°C° 0 mm 7 m/s 751 mmHg 49%
    18:00 +36°C° 0 mm 6 m/s 752 mmHg 54%
    19:00 +35°C° 0 mm 5 m/s 752 mmHg 59%
    20:00 +34°C° 0 mm 4 m/s 753 mmHg 64%
    21:00 +34°C° 0 mm 4 m/s 753 mmHg 66%
    22:00 +34°C° 0 mm 4 m/s 753 mmHg 67%
    23:00 +33°C° 0 mm 4 m/s 753 mmHg 69%
    Arată mai mult